Miscellaneous Local Product
Issued by NWS Hastings, NE

Home | Current Version | Previous Version | Graphics & Text | Print | Product List | Glossary On
Versions: 1 2 3 4 5 6 7 8 9 10 11 12 13 14 15 16 17 18 19 20 21 22 23 24 25 26 27 28 29 30 31 32 33 34 35 36 37 38 39 40 41 42 43 44 45 46 47 48 49 50
000
AXUS43 KGID 190602
MISGRI

GID CWA HOURLY WEATHER ROUNDUP
NATIONAL WEATHER SERVICE HASTINGS NE
100 AM CDT SUN APR 19 2015

NOTE: "FAIR" INDICATES FEW OR NO CLOUDS BELOW 12,000 FEET WITH NO
SIGNIFICANT WEATHER AND/OR OBSTRUCTIONS TO VISIBILITY.

...SOUTH CENTRAL NEBRASKA...

CITY           SKY/WX    TMP DP  RH WIND       PRES   REMARKS
GRAND ISLAND   FAIR      52  47  83 S7        29.79S
HASTINGS       FAIR      52  47  83 S7        29.78S
KEARNEY        CLOUDY    52  46  82 SW8       29.79R
ORD            CLOUDY    52  46  80 NW12      29.80R
YORK           CLOUDY    54  50  87 NW3       29.77F
AURORA         CLOUDY    54  51  89 CALM      29.78F
LEXINGTON      CLOUDY    52  48  86 S3        29.82F
HOLDREGE       FAIR      51  47  86 CALM      29.80F
HEBRON         MOCLDY    53  50  90 W7        29.79R

...NEBRASKA PANHANDLE...

CITY           SKY/WX    TMP DP  RH WIND       PRES   REMARKS
CHADRON        LGT RAIN  46  40  79 N17       30.00R
ALLIANCE       LGT RAIN  45  43  93 N17G26    29.93S
SCOTTSBLUFF    CLOUDY    47  50 100 NW17G24   29.97S
SIDNEY         CLOUDY    45  42  89 N15       29.92S

...WESTERN AND NORTH CENTRAL NEBRASKA...

CITY           SKY/WX    TMP DP  RH WIND       PRES   REMARKS
VALENTINE      CLOUDY    49  44  83 NW15      29.87F
AINSWORTH      CLOUDY    51  48  89 NW12      29.82F
ONEILL         CLOUDY    56  55  98 CALM      29.80S THUNDER FOG
BROKEN BOW     CLOUDY    52  47  83 NW18      29.79S
IMPERIAL       LGT RAIN  48  45  89 N20G30    29.87R
NORTH PLATTE   LGT RAIN  49  46  90 NW15      29.86S
MCCOOK         CLOUDY    52  47  83 NE14      29.82F

...EASTERN NEBRASKA...

CITY           SKY/WX    TMP DP  RH WIND       PRES   REMARKS
NORFOLK        NOT AVBL
SO SIOUX CITY  CLOUDY    54  52  93 SE8       29.79F
TEKAMAH        CLOUDY    56  55  97 SE3       29.78F
COLUMBUS       FAIR      55  45  67 SW6       29.79F
ALBION         FAIR      52  46  79 CALM      29.77F
OMAHA EPPLEY   CLOUDY    57  56  96 E6        29.80F
OFFUTT AFB     CLOUDY    56  56  99 E5        29.79F
MILLARD        CLOUDY    58  56  93 E3        29.79F
LINCOLN        CLOUDY    58  52  80 SE3       29.80S
NEBRASKA CITY  FOG       56  56 100 CALM      29.80F VSB 1
BEATRICE       FAIR      54  52  94 NE3       29.79F
FALLS CITY     MOCLDY    57  56  96 S6        29.80S

...NORTHERN KANSAS...

CITY           SKY/WX    TMP DP  RH WIND       PRES   REMARKS
GOODLAND       CLOUDY    47  44  90 N13       29.79S
HILL CITY      MOCLDY    51  47  86 E9        29.80S
NORTON         CLOUDY    50  45  81 NE6       29.80S
PHILLIPSBURG   CLEAR     55  50  82 NE6       29.80F
SMITH CENTER   PTCLDY    52  46  82 E5        29.80F
BELOIT         PTCLDY    50  50 100 CALM      29.79F
HAYS           FAIR      52  43  71 N8        29.78F
RUSSELL        FAIR      50  48  93 NE5       29.76R
CONCORDIA      CLOUDY    54  51  90 S10       29.80R
SALINA         CLOUDY    56  50  80 E9        29.78F
TOPEKA         CLOUDY    57  52  83 CALM      29.81F



USA.gov is the U.S. government's official web portal to all federal, state and local government web resources and services.